Weather History for Chadron, NE

Change the Weather History Date:

Friday, May 9, 2014

  Actual Average Record
Temperature  
Mean Temperature 47 °F 54 °F  
Max Temperature 66 °F 69 °F 94 °F (1962)
Min Temperature 27 °F 39 °F 26 °F (1997)
Degree Days  
Heating Degree Days 18 12  
Month to date heating degree days 129 120  
Since 1 July heating degree days 7047 6883  
Cooling Degree Days 0 0  
Month to date cooling degree days 0 0  
Year to date cooling degree days 1 2  
Moisture  
Dew Point 38 °F    
Average Humidity 74    
Maximum Humidity 100    
Minimum Humidity 48    
Precipitation  
Precipitation 0.00 in 0.08 in 2.31 in (1927)
Month to date precipitation 1.25 0.76  
Year to date precipitation 5.55 4.94  
Sea Level Pressure  
Sea Level Pressure 29.81 in    
Wind  
Wind Speed 5 mph (SSE)    
Max Wind Speed 15 mph    
Max Gust Speed 18 mph    
Visibility 10 miles    
Events      
T = Trace of Precipitation, MM = Missing Value Source: NWS Daily Summary

Daily Weather History Graph

Daily Weather History Graph

Search for Another Location

Airport:

Trip Planner

Search our weather history database for the weather conditions in past years. The results will help you decide how hot, cold, wet, or windy it might be!

Date:

Astronomy

May. 09, 2014 Rise Set
Actual Time 5:36 AM MDT 8:02 PM MDT
Civil Twilight 5:04 AM MDT 8:34 PM MDT
Nautical Twilight 4:24 AM MDT 9:13 PM MDT
Astronomical Twilight 3:40 AM MDT 9:58 PM MDT
Moon 2:54 PM MDT (5/9) 2:47 AM MDT (5/9)
Length of Visible Light 15h 29m
Length of Day
14h 25m
Waxing Gibbous, 74% of the Moon is Illuminated
May 9
Waxing Gibbous
May 14
Full
May 21
Last Quarter
May 28
New
Jun 5
First Quarter

Hourly Weather History & Observations

Time (MDT) Temp. Windchill Dew Point Humidity Pressure Visibility Wind Dir Wind Speed Gust Speed Precip Events Conditions
12:53 AM 30.0 °F - 28.9 °F 96% 29.99 in 10.0 mi Calm Calm - N/A   Mostly Cloudy
1:53 AM 30.0 °F - 28.9 °F 96% 29.97 in 10.0 mi Calm Calm - N/A   Clear
2:53 AM 30.0 °F 26.5 °F 28.0 °F 92% 29.96 in 10.0 mi NNW 3.5 mph - N/A   Clear
3:53 AM 28.0 °F - 27.0 °F 96% 29.95 in 10.0 mi Calm Calm - N/A   Clear
4:53 AM 28.0 °F - 26.1 °F 92% 29.93 in 10.0 mi Calm Calm - N/A   Clear
5:53 AM 28.9 °F - 28.0 °F 96% 29.91 in 10.0 mi Calm Calm - N/A   Clear
6:53 AM 32.0 °F - 30.0 °F 92% 29.90 in 10.0 mi Calm Calm - N/A   Clear
7:53 AM 37.0 °F - 34.0 °F 89% 29.90 in 10.0 mi Calm Calm - 0.01 in   Clear
9:53 AM 46.0 °F 44.8 °F 39.0 °F 76% 29.86 in 10.0 mi SE 3.5 mph - N/A   Clear
10:53 AM 51.1 °F - 41.0 °F 68% 29.84 in 10.0 mi SE 3.5 mph - N/A   Clear
11:53 AM 57.0 °F - 41.0 °F 55% 29.81 in 10.0 mi SE 8.1 mph - N/A   Clear
12:53 PM 59.0 °F - 42.1 °F 53% 29.78 in 10.0 mi East 5.8 mph - N/A   Clear
1:53 PM 63.0 °F - 42.1 °F 46% 29.75 in 10.0 mi East 6.9 mph - N/A   Clear
2:53 PM 64.9 °F - 44.1 °F 47% 29.73 in 10.0 mi East 4.6 mph - N/A   Clear
3:53 PM 64.9 °F - 45.0 °F 48% 29.71 in 10.0 mi SE 6.9 mph - N/A   Clear
4:53 PM 64.9 °F - 45.0 °F 48% 29.69 in 10.0 mi SE 8.1 mph - N/A   Clear
5:53 PM 63.0 °F - 48.0 °F 58% 29.69 in 10.0 mi SE 9.2 mph - N/A   Clear
6:53 PM 62.1 °F - 46.0 °F 56% 29.68 in 10.0 mi SSW 8.1 mph - N/A   Clear
7:53 PM 57.0 °F - 46.9 °F 69% 29.69 in 10.0 mi SSW 5.8 mph - N/A   Mostly Cloudy
8:53 PM 54.0 °F - 44.1 °F 69% 29.69 in 10.0 mi South 9.2 mph - N/A   Partly Cloudy
9:53 PM 54.0 °F - 43.0 °F 66% 29.70 in 10.0 mi SSW 16.1 mph - N/A   Clear
10:53 PM 50.0 °F - 43.0 °F 77% 29.70 in 10.0 mi SW 9.2 mph - N/A   Clear
11:53 PM 48.9 °F - 43.0 °F 80% 29.70 in 10.0 mi SW 9.2 mph - N/A   Partly Cloudy